カタログに戻る

NOAA 16 DEB

運用中PO
NORAD 41157·DEBRIS·🇺🇸 United States

打ち上げ Sep 21, 2000 から Vandenberg Space Force Base

Loading…

次のパス (今後24時間)

TLE

最新Source: Space-Track

元期: Sep 14, 2026, 14:33 UTC

1 41157U 00055CQ  26257.60650383  .00011232  00000-0  26308-2 0  9991
2 41157  98.9130  37.3208 0020270 202.9919 157.0371 14.54615932557579

AllMySatでNOAA 16 DEBをリアルタイム追跡

Download on the App Store